Flag for Sweden Weather past 2 weeks in Stockholm, Sweden

Now
63 °F

Passing clouds.


Feels Like: 63 °F
Forecast: 47 / 65 °F
Wind: 1 mph from West

Location: Stockholm Bromma Airport

Current Time: Sep 18, 2014 at 12:00:01 PM

Latest Report: Sep 18, 2014 at 11:20 AM


Visibility: N/A

Pressure: 30.27 "Hg

Humidity: 73%

Dew point: 54 °F

Location of StockholmLocation

Historic Weather in Stockholm — Graph

°F

Stockholm temperature yesterday

Maximum temperature yesterday: 66 °F (at 2:50 PM)
Minimum temperature yesterday: 39 °F (at 5:20 AM)
Average temperature yesterday: 53 °F

Past Weeks' High & Low Weather Summary

 TemperatureHumidityPressure
High73 °F (Sep 4, 1:50 PM)100% (Sep 3, 10:50 PM)30.48 "Hg (Sep 3, 10:50 PM)
Low39 °F (Sep 17, 5:20 AM)44% (Sep 4, 2:20 PM)29.80 "Hg (Sep 9, 3:50 AM)
Average58 °F83%30.21 "Hg
* Reported Sep 3 10:20 AM — Sep 18 10:50 AM, Stockholm, Weather by CustomWeather, © 2014

Note: Actual official high and low records may vary slightly from our data, if they occured in-between our weather recording intervals... More about our weather records

Advertising

Stockholm weather history for previous 24 hours

 ConditionsComfort  
Time TempWeatherWind HumidityBarometerVisibility
10:50 AM
Sep 18
59 °FPassing clouds.2 mph88%30.27 "HgN/A
10:20 AM57 °FPassing clouds.No wind100%30.27 "HgN/A
9:50 AM54 °FScattered clouds.1 mph100%30.27 "Hg1 mi
9:20 AM54 °FFog.2 mph100%30.27 "Hg0 mi
8:50 AM52 °FDense fog.2 mph100%30.27 "Hg0 mi
8:20 AM50 °FFog.2 mph100%30.27 "Hg0 mi
7:50 AM48 °FFog.2 mph100%30.27 "Hg0 mi
7:20 AM46 °FFog.No wind100%30.27 "Hg0 mi
6:50 AM46 °FFog.No wind100%30.27 "Hg0 mi
6:20 AM46 °FFog.No wind100%30.27 "Hg0 mi
5:50 AM46 °FFog.No wind100%30.27 "Hg0 mi
5:20 AM46 °FFog.No wind100%30.27 "Hg0 mi
4:50 AM46 °FFog.No wind100%30.27 "Hg0 mi
4:20 AM46 °FFog.No wind100%30.27 "Hg0 mi
3:50 AM46 °FDense fog.No wind100%30.27 "Hg0 mi
3:20 AM45 °FLow clouds.No wind100%30.27 "Hg0 mi
2:50 AM45 °FPassing clouds.No wind100%30.27 "Hg0 mi
2:20 AM43 °FPassing clouds.No wind100%30.27 "Hg0 mi
1:50 AM45 °FFog.No wind100%30.27 "Hg0 mi
1:20 AM45 °FLight fog.No wind100%30.27 "Hg0 mi
12:50 AM45 °FLight fog.No wind100%30.27 "Hg2 mi
12:20 AM45 °FLight fog.No wind100%30.27 "Hg0 mi
11:50 PM
Sep 17
46 °FLight fog.No wind93%30.27 "Hg3 mi
11:20 PM46 °FLight fog.No wind100%30.27 "Hg0 mi
10:50 PM48 °FFog.No wind100%30.27 "Hg1 mi
10:20 PM48 °FCool.No wind100%30.27 "Hg4 mi
9:50 PM50 °FClear.2 mph100%30.30 "Hg10 mi
9:20 PM50 °FClear.2 mph94%30.30 "Hg10 mi
8:50 PM52 °FClear.1 mph94%30.27 "Hg10 mi
8:20 PM54 °FPassing clouds.3 mph88%30.27 "HgN/A
7:50 PM55 °FSunny.5 mph82%30.27 "Hg10 mi
7:20 PM57 °FSunny.6 mph72%30.27 "Hg10 mi
6:50 PM59 °FSunny.6 mph68%30.27 "Hg10 mi
6:20 PM61 °FSunny.7 mph59%30.27 "Hg10 mi
5:50 PM63 °FSunny.7 mph59%30.27 "Hg10 mi
5:20 PM64 °FPassing clouds.6 mph56%30.27 "HgN/A
4:50 PM64 °FPassing clouds.7 mph56%30.27 "HgN/A
4:20 PM64 °FPassing clouds.7 mph56%30.27 "HgN/A
3:50 PM66 °FPassing clouds.7 mph52%30.27 "HgN/A
3:20 PM66 °FScattered clouds.8 mph52%30.30 "HgN/A
2:50 PM66 °FScattered clouds.6 mph52%30.30 "HgN/A
2:20 PM64 °FScattered clouds.7 mph60%30.30 "HgN/A
1:50 PM64 °FScattered clouds.7 mph60%30.30 "HgN/A
1:20 PM64 °FScattered clouds.5 mph60%30.33 "HgN/A
12:50 PM64 °FScattered clouds.6 mph60%30.33 "HgN/A
12:20 PM63 °FScattered clouds.7 mph64%30.33 "HgN/A
Weather by CustomWeather, © 2014

See weather overviewHow to use our weather pages